Location: Groß Eilstorf
(52.8200°N, 9.4552°E)
Time: 12:04:30
(UTC+00:00)

SL-16 R/B - Pass Details

Date: 15 May 2026
Orbit: 841 x 844 km, 71.0° (Epoch: 5 June)

Event Time Altitude Azimuth Distance (km) Brightness Sun altitude
Rises 21:03:58 0° 324° (NW) 3,416 7.5 -12.5°
Reaches altitude 10° 21:06:37 10° 315° (NW) 2,476 6.0 -12.7°
Maximum altitude 21:11:39 34° 253° (WSW) 1,374 3.4 -13.1°
Enters shadow 21:16:36 10° 191° (S) 2,445 4.2 -13.4°
